Flag for United Arab Emirates Weather past 2 weeks in Dubai, Dubai, United Arab Emirates

Now
102 °F

Clear.


Feels Like: 102 °F
Forecast: 85 / 103 °F
Wind: 9 mph from Northwest

Location: Dubai International Airport

Current Time: May 7, 2015 at 1:57:10 PM

Latest Report: May 7, 2015 at 1:00 PM


Visibility: 5 mi

Pressure: 29.71 "Hg

Humidity: 23%

Dew point: 57 °F

Location of DubaiLocation

Historic Weather in Dubai — Graph

°F

Dubai temperature yesterday

Maximum temperature yesterday: 102 °F (at 11:00 AM)
Minimum temperature yesterday: 88 °F (at 6:00 AM)
Average temperature yesterday: 95 °F

Past Weeks' High & Low Weather Summary

 TemperatureHumidityPressure
High104 °F (Apr 24, 1:00 PM)89% (Apr 28, 2:00 AM)29.89 "Hg (Apr 28, 2:00 AM)
Low73 °F (Apr 26, 5:00 AM)5% (May 2, 1:00 PM)29.62 "Hg (May 5, 4:00 AM)
Average87 °F38%29.79 "Hg
* Reported Apr 22 12:00 Noon — May 7 12:00 Noon, Dubai, Weather by CustomWeather, © 2015

Note: Actual official high and low records may vary slightly from our data, if they occured in-between our weather recording intervals... More about our weather records

Advertising

Dubai weather history for previous 24 hours

 ConditionsComfort  
Time TempWeatherWind HumidityBarometerVisibility
12:00 PM
Thu, May 7
102 °FClear.8 mph21%29.74 "Hg5 mi
11:00 AM102 °FClear.12 mph16%29.77 "Hg5 mi
10:00 AM99 °FPassing clouds.10 mph19%29.77 "HgN/A
9:00 AM97 °FPassing clouds.7 mph20%29.77 "HgN/A
8:00 AM93 °FSunny.5 mph19%29.77 "Hg10 mi
7:00 AM90 °FPassing clouds.5 mph21%29.74 "HgN/A
6:00 AM86 °FSunny.3 mph25%29.74 "Hg10 mi
5:00 AM86 °FPassing clouds.7 mph25%29.71 "HgN/A
4:00 AM90 °FPassing clouds.3 mph22%29.71 "HgN/A
3:00 AM90 °FClear.5 mph24%29.71 "Hg10 mi
2:00 AM91 °FClear.6 mph23%29.71 "Hg10 mi
1:00 AM91 °FPassing clouds.6 mph24%29.74 "HgN/A
12:00 AM93 °FClear.6 mph24%29.74 "Hg10 mi
11:00 PM
Wed, May 6
95 °FPassing clouds.5 mph22%29.74 "HgN/A
10:00 PM95 °FPassing clouds.6 mph22%29.74 "HgN/A
9:00 PM95 °FPassing clouds.5 mph20%29.71 "HgN/A
8:00 PM95 °FClear.7 mph20%29.71 "Hg10 mi
7:00 PM95 °FPassing clouds.7 mph28%29.68 "HgN/A
6:00 PM99 °FPassing clouds.7 mph24%29.68 "HgN/A
5:00 PM99 °FSunny.12 mph22%29.68 "Hg10 mi
4:00 PM99 °FPassing clouds.14 mph19%29.68 "HgN/A
3:00 PM100 °FPassing clouds.13 mph17%29.68 "HgN/A
2:00 PM99 °FSunny.15 mph25%29.71 "Hg10 mi
1:00 PM99 °FSunny.14 mph24%29.74 "Hg10 mi
Weather by CustomWeather, © 2015

See weather overviewHow to use our weather pages